| time (UTC) | temp F | wind direction | speed MPH | gust MPH | rain 1hr in | rain 24hr in | rain mn in | humidity % | barometer mb |
| 20260507080148 | 55 | 205 | 1.0 | 4.0 | 0.00 | 0.22 | 0.01 | 88 | 1011.9 |
| 20260507075558 | 55 | 231 | 1.0 | 3.0 | 0.00 | 0.22 | 0.01 | 87 | 1011.9 |
| 20260507075059 | 55 | 331 | 1.0 | 6.0 | 0.00 | 0.22 | 0.01 | 87 | 1011.9 |
| 20260507074607 | 55 | 263 | 1.0 | 6.0 | 0.00 | 0.22 | 0.01 | 88 | 1011.9 |
| 20260507074053 | 56 | 218 | 0.0 | 5.0 | 0.00 | 0.22 | 0.01 | 88 | 1011.8 |
| 20260507073541 | 56 | 237 | 0.0 | 4.0 | 0.00 | 0.22 | 0.01 | 88 | 1011.7 |
| 20260507073043 | 56 | 228 | 0.0 | 4.0 | 0.00 | 0.22 | 0.01 | 89 | 1011.7 |
| 20260507072538 | 56 | 91 | 0.0 | 4.0 | 0.00 | 0.22 | 0.01 | 90 | 1011.7 |
| 20260507072036 | 55 | 243 | 1.0 | 4.0 | 0.00 | 0.22 | 0.01 | 90 | 1011.6 |
| 20260507071537 | 55 | 318 | 0.0 | 2.0 | 0.00 | 0.22 | 0.01 | 91 | 1011.7 |
| 20260507071034 | 55 | 281 | 0.0 | 3.0 | 0.00 | 0.22 | 0.01 | 92 | 1011.5 |
| 20260507070534 | 55 | 284 | 0.0 | 2.0 | 0.00 | 0.22 | 0.01 | 92 | 1011.5 |
| 20260507070035 | 54 | 255 | 0.0 | 2.0 | 0.00 | 0.22 | 0.01 | 93 | 1011.5 |
| 20260507065532 | 54 | 267 | 0.0 | 4.0 | 0.00 | 0.22 | 0.01 | 93 | 1011.4 |
| 20260507065032 | 54 | 222 | 1.0 | 4.0 | 0.00 | 0.22 | 0.01 | 93 | 1011.4 |
| 20260507064532 | 54 | 354 | 0.0 | 0.0 | 0.00 | 0.22 | 0.01 | 94 | 1011.5 |
| 20260507064033 | 54 | 353 | 0.0 | 1.0 | 0.00 | 0.22 | 0.01 | 94 | 1011.4 |
| 20260507063530 | 54 | 353 | 0.0 | 2.0 | 0.00 | 0.22 | 0.01 | 94 | 1011.5 |
| 20260507063045 | 53 | 353 | 0.0 | 2.0 | 0.00 | 0.22 | 0.01 | 94 | 1011.4 |
| 20260507062530 | 53 | 31 | 0.0 | 1.0 | 0.00 | 0.22 | 0.01 | 94 | 1011.3 |
| 20260507062030 | 53 | 52 | 0.0 | 2.0 | 0.00 | 0.22 | 0.01 | 94 | 1011.3 |
| 20260507061532 | 53 | 52 | 0.0 | 1.0 | 0.00 | 0.22 | 0.01 | 94 | 1011.2 |
| 20260507061031 | 53 | 52 | 0.0 | 1.0 | 0.00 | 0.22 | 0.01 | 95 | 1011.1 |
| 20260507060528 | 53 | 307 | 0.0 | 0.0 | 0.00 | 0.22 | 0.01 | 95 | 1011.1 |
| 20260507060128 | 53 | 62 | 0.0 | 0.0 | 0.00 | 0.22 | 0.01 | 95 | 1011.1 |
| 20260507055526 | 53 | 62 | 0.0 | 0.0 | 0.00 | 0.22 | 0.01 | 95 | 1010.9 |
| 20260507055026 | 52 | 77 | 0.0 | 0.0 | 0.00 | 0.22 | 0.01 | 95 | 1010.9 |
| 20260507054525 | 52 | 77 | 0.0 | 0.0 | 0.00 | 0.22 | 0.01 | 95 | 1010.8 |
| 20260507054024 | 52 | 91 | 0.0 | 0.0 | 0.00 | 0.22 | 0.01 | 95 | 1010.7 |
| 20260507053524 | 52 | 80 | 0.0 | 0.0 | 0.00 | 0.22 | 0.01 | 95 | 1010.6 |
| 20260507053024 | 51 | 80 | 0.0 | 0.0 | 0.00 | 0.22 | 0.01 | 95 | 1010.7 |
| 20260507052523 | 51 | 80 | 0.0 | 0.0 | 0.00 | 0.22 | 0.01 | 95 | 1010.5 |
| 20260507052023 | 51 | 80 | 0.0 | 0.0 | 0.00 | 0.22 | 0.01 | 95 | 1010.6 |
| 20260507051524 | 50 | 80 | 0.0 | 0.0 | 0.00 | 0.22 | 0.01 | 95 | 1010.7 |
| 20260507051022 | 50 | 80 | 0.0 | 0.0 | 0.00 | 0.22 | 0.01 | 95 | 1010.6 |
| 20260507050521 | 50 | 80 | 0.0 | 0.0 | 0.00 | 0.22 | 0.01 | 95 | 1010.6 |
| 20260507050023 | 50 | 80 | 0.0 | 0.0 | 0.00 | 0.23 | 0.01 | 95 | 1010.5 |
| 20260507045520 | 50 | 80 | 0.0 | 0.0 | 0.00 | 0.23 | 0.01 | 95 | 1010.5 |
| 20260507045020 | 50 | 80 | 0.0 | 0.0 | 0.00 | 0.23 | 0.01 | 95 | 1010.4 |
| 20260507044519 | 49 | 80 | 0.0 | 0.0 | 0.00 | 0.23 | 0.01 | 95 | 1010.3 |
| 20260507044018 | 49 | 80 | 0.0 | 0.0 | 0.00 | 0.23 | 0.01 | 95 | 1010.2 |
| 20260507043518 | 49 | 80 | 0.0 | 0.0 | 0.00 | 0.23 | 0.01 | 95 | 1010.1 |
| 20260507043017 | 49 | 80 | 0.0 | 0.0 | 0.00 | 0.23 | 0.01 | 95 | 1010.0 |
| 20260507042517 | 49 | 80 | 0.0 | 0.0 | 0.00 | 0.23 | 0.01 | 95 | 1010.0 |
| 20260507042016 | 49 | 80 | 0.0 | 0.0 | 0.01 | 0.23 | 0.01 | 95 | 1010.0 |
| 20260507041515 | 49 | 80 | 0.0 | 0.0 | 0.01 | 0.23 | 0.01 | 95 | 1010.0 |
| 20260507041014 | 49 | 80 | 0.0 | 0.0 | 0.01 | 0.23 | 0.01 | 95 | 1009.9 |
| 20260507040513 | 49 | 80 | 0.0 | 3.0 | 0.01 | 0.23 | 0.01 | 95 | 1009.8 |
| 20260507040013 | 49 | 80 | 0.0 | 3.0 | 0.01 | 0.23 | 0.01 | 95 | 1009.8 |
| 20260507035513 | 49 | 271 | 0.0 | 1.0 | 0.01 | 0.23 | 0.01 | 95 | 1009.7 |
| 20260507035012 | 49 | 271 | 0.0 | 1.0 | 0.01 | 0.23 | 0.01 | 95 | 1009.5 |
| 20260507034526 | 48 | 271 | 0.0 | 1.0 | 0.01 | 0.23 | 0.01 | 95 | 1009.4 |
| 20260507034014 | 49 | 271 | 0.0 | 1.0 | 0.01 | 0.23 | 0.01 | 95 | 1009.4 |
| 20260507033514 | 49 | 271 | 0.0 | 1.0 | 0.01 | 0.23 | 0.01 | 95 | 1009.4 |
| 20260507033010 | 49 | 271 | 0.0 | 1.0 | 0.01 | 0.23 | 0.01 | 95 | 1009.4 |
| 20260507032508 | 49 | 38 | 0.0 | 0.0 | 0.01 | 0.23 | 0.01 | 95 | 1009.4 |
| 20260507032013 | 49 | 39 | 0.0 | 1.0 | 0.00 | 0.22 | 0.00 | 94 | 1009.3 |
| 20260507031507 | 49 | 39 | 0.0 | 1.0 | 0.00 | 0.22 | 0.00 | 94 | 1009.3 |
| 20260507031007 | 49 | 322 | 0.0 | 1.0 | 0.00 | 0.22 | 0.00 | 95 | 1009.2 |
| 20260507030507 | 49 | 322 | 0.0 | 1.0 | 0.00 | 0.22 | 0.00 | 95 | 1009.3 |
| 20260507030010 | 49 | 322 | 0.0 | 0.0 | 0.00 | 0.22 | 0.00 | 95 | 1009.3 |
| 20260507025506 | 50 | 322 | 0.0 | 2.0 | 0.00 | 0.22 | 0.00 | 95 | 1009.3 |
| 20260507025005 | 49 | 322 | 0.0 | 2.0 | 0.00 | 0.22 | 0.00 | 95 | 1009.3 |
| 20260507024505 | 49 | 231 | 0.0 | 0.0 | 0.00 | 0.22 | 0.00 | 95 | 1009.2 |
| 20260507024007 | 49 | 231 | 0.0 | 0.0 | 0.00 | 0.22 | 0.00 | 95 | 1009.2 |
| 20260507023505 | 49 | 231 | 0.0 | 0.0 | 0.00 | 0.22 | 0.00 | 94 | 1009.1 |
| 20260507023004 | 49 | 231 | 0.0 | 0.0 | 0.00 | 0.22 | 0.00 | 94 | 1009.1 |
| 20260507022503 | 50 | 231 | 0.0 | 0.0 | 0.00 | 0.22 | 0.00 | 95 | 1009.1 |
| 20260507022003 | 50 | 231 | 0.0 | 0.0 | 0.00 | 0.22 | 0.00 | 95 | 1009.0 |
| 20260507021503 | 50 | 231 | 0.0 | 0.0 | 0.00 | 0.22 | 0.00 | 94 | 1009.0 |
| 20260507021002 | 50 | 232 | 0.0 | 0.0 | 0.00 | 0.22 | 0.00 | 95 | 1009.1 |
| 20260507020502 | 50 | 232 | 0.0 | 0.0 | 0.00 | 0.22 | 0.00 | 94 | 1009.0 |
| 20260507020001 | 50 | 232 | 0.0 | 0.0 | 0.00 | 0.22 | 0.00 | 94 | 1009.1 |
| 20260507015600 | 50 | 232 | 0.0 | 0.0 | 0.00 | 0.22 | 0.00 | 95 | 1009.1 |
| 20260507015059 | 50 | 232 | 0.0 | 0.0 | 0.00 | 0.22 | 0.00 | 95 | 1009.1 |
| 20260507014603 | 51 | 232 | 0.0 | 0.0 | 0.00 | 0.22 | 0.00 | 94 | 1009.0 |
| 20260507014059 | 51 | 232 | 0.0 | 0.0 | 0.00 | 0.22 | 0.00 | 94 | 1009.1 |
| 20260507013557 | 51 | 232 | 0.0 | 0.0 | 0.00 | 0.22 | 0.00 | 95 | 1009.1 |
| 20260507013117 | 51 | 194 | 0.0 | 0.0 | 0.00 | 0.22 | 0.00 | 95 | 1009.0 |
| 20260507012557 | 51 | 194 | 0.0 | 0.0 | 0.00 | 0.22 | 0.00 | 94 | 1009.0 |
| 20260507012057 | 51 | 194 | 0.0 | 0.0 | 0.00 | 0.22 | 0.00 | 94 | 1008.9 |
| 20260507011604 | 51 | 194 | 0.0 | 0.0 | 0.00 | 0.22 | 0.00 | 94 | 1008.9 |
| 20260507011100 | 51 | 194 | 0.0 | 0.0 | 0.00 | 0.22 | 0.00 | 94 | 1008.9 |
| 20260507010558 | 51 | 194 | 0.0 | 0.0 | 0.00 | 0.22 | 0.00 | 94 | 1008.8 |
| 20260507010105 | 50 | 194 | 0.0 | 0.0 | 0.00 | 0.22 | 0.00 | 94 | 1008.8 |
| 20260507005555 | 51 | 194 | 0.0 | 0.0 | 0.00 | 0.22 | 0.00 | 94 | 1008.7 |
| 20260507005053 | 51 | 194 | 0.0 | 0.0 | 0.00 | 0.22 | 0.00 | 94 | 1008.6 |
| 20260507004553 | 51 | 194 | 0.0 | 0.0 | 0.00 | 0.22 | 0.00 | 94 | 1008.6 |
| 20260507004055 | 51 | 194 | 0.0 | 0.0 | 0.00 | 0.22 | 0.00 | 94 | 1008.6 |
| 20260507003552 | 51 | 194 | 0.0 | 0.0 | 0.00 | 0.22 | 0.00 | 94 | 1008.5 |
| 20260507003051 | 51 | 194 | 0.0 | 0.0 | 0.00 | 0.22 | 0.00 | 94 | 1008.4 |
| 20260507002551 | 51 | 194 | 0.0 | 0.0 | 0.00 | 0.22 | 0.00 | 94 | 1008.5 |
| 20260507002051 | 51 | 194 | 0.0 | 0.0 | 0.00 | 0.22 | 0.00 | 94 | 1008.4 |
| 20260507001553 | 52 | 194 | 0.0 | 0.0 | 0.00 | 0.22 | 0.00 | 94 | 1008.4 |
| 20260507001049 | 52 | 194 | 0.0 | 0.0 | 0.00 | 0.22 | 0.00 | 94 | 1008.3 |
| 20260507000552 | 52 | 194 | 0.0 | 0.0 | 0.00 | 0.22 | 0.00 | 94 | 1008.2 |
| 20260507000047 | 52 | 194 | 0.0 | 0.0 | 0.00 | 0.22 | 0.00 | 94 | 1008.2 |
| 20260506235545 | 52 | 194 | 0.0 | 0.0 | 0.00 | 0.23 | 0.00 | 94 | 1008.1 |
| 20260506235045 | 53 | 194 | 0.0 | 0.0 | 0.00 | 0.23 | 0.00 | 94 | 1008.1 |
| 20260506234545 | 53 | 194 | 0.0 | 0.0 | 0.00 | 0.23 | 0.00 | 94 | 1008.0 |
| 20260506234044 | 53 | 194 | 0.0 | 0.0 | 0.00 | 0.23 | 0.00 | 94 | 1007.9 |
| 20260506233546 | 53 | 194 | 0.0 | 0.0 | 0.00 | 0.23 | 0.00 | 94 | 1007.8 |
| 20260506233057 | 53 | 194 | 0.0 | 0.0 | 0.00 | 0.23 | 0.00 | 94 | 1007.8 |
| 20260506232543 | 53 | 194 | 0.0 | 0.0 | 0.00 | 0.23 | 0.00 | 94 | 1008.0 |
| 20260506232044 | 53 | 194 | 0.0 | 0.0 | 0.00 | 0.23 | 0.00 | 94 | 1008.1 |
| 20260506231544 | 53 | 194 | 0.0 | 0.0 | 0.00 | 0.23 | 0.00 | 94 | 1008.1 |
| 20260506231045 | 53 | 194 | 0.0 | 0.0 | 0.00 | 0.23 | 0.00 | 94 | 1008.0 |
| 20260506230546 | 54 | 194 | 0.0 | 0.0 | 0.00 | 0.23 | 0.00 | 94 | 1007.9 |
| 20260506230145 | 54 | 194 | 0.0 | 0.0 | 0.00 | 0.23 | 0.00 | 94 | 1007.8 |
| 20260506225559 | 54 | 194 | 0.0 | 0.0 | 0.00 | 0.28 | 0.00 | 94 | 1007.7 |
| 20260506225053 | 54 | 194 | 0.0 | 0.0 | 0.00 | 0.28 | 0.00 | 94 | 1007.7 |
| 20260506224554 | 54 | 194 | 0.0 | 0.0 | 0.00 | 0.28 | 0.00 | 94 | 1007.8 |
| 20260506224054 | 54 | 194 | 0.0 | 0.0 | 0.00 | 0.28 | 0.00 | 94 | 1007.9 |
| 20260506223554 | 54 | 194 | 0.0 | 0.0 | 0.00 | 0.28 | 0.00 | 94 | 1008.0 |
| 20260506223051 | 54 | 197 | 0.0 | 0.0 | 0.00 | 0.28 | 0.00 | 93 | 1007.9 |
| 20260506222550 | 54 | 184 | 0.0 | 0.0 | 0.00 | 0.28 | 0.00 | 93 | 1008.0 |
| 20260506222050 | 54 | 184 | 0.0 | 0.0 | 0.00 | 0.28 | 0.00 | 93 | 1007.9 |
| 20260506221556 | 54 | 116 | 0.0 | 0.0 | 0.00 | 0.28 | 0.00 | 93 | 1007.8 |
| 20260506221048 | 54 | 116 | 0.0 | 0.0 | 0.00 | 0.28 | 0.00 | 93 | 1007.8 |
| 20260506220548 | 54 | 116 | 0.0 | 0.0 | 0.00 | 0.28 | 0.00 | 93 | 1007.8 |
| 20260506220149 | 54 | 116 | 0.0 | 0.0 | 0.01 | 0.28 | 0.00 | 93 | 1007.8 |
| 20260506215550 | 55 | 116 | 0.0 | 0.0 | 0.02 | 0.36 | 0.28 | 93 | 1007.6 |
| 20260506215054 | 55 | 116 | 0.0 | 0.0 | 0.04 | 0.36 | 0.28 | 93 | 1007.5 |
| 20260506214552 | 55 | 116 | 0.0 | 0.0 | 0.05 | 0.36 | 0.28 | 93 | 1007.5 |
| 20260506214050 | 55 | 116 | 0.0 | 0.0 | 0.06 | 0.36 | 0.28 | 93 | 1007.4 |
| 20260506213551 | 55 | 116 | 0.0 | 0.0 | 0.08 | 0.36 | 0.28 | 93 | 1007.3 |
| 20260506213050 | 55 | 116 | 0.0 | 0.0 | 0.09 | 0.36 | 0.28 | 93 | 1007.3 |
| 20260506212549 | 55 | 220 | 0.0 | 0.0 | 0.09 | 0.36 | 0.28 | 93 | 1007.3 |
| 20260506212049 | 55 | 222 | 0.0 | 0.0 | 0.10 | 0.36 | 0.28 | 92 | 1007.5 |
| 20260506211556 | 55 | 222 | 0.0 | 0.0 | 0.12 | 0.36 | 0.28 | 93 | 1007.4 |
| 20260506211050 | 55 | 222 | 0.0 | 0.0 | 0.13 | 0.36 | 0.28 | 92 | 1007.4 |
| 20260506210549 | 55 | 239 | 0.0 | 0.0 | 0.13 | 0.36 | 0.28 | 92 | 1007.4 |
| 20260506210148 | 56 | 244 | 0.0 | 0.0 | 0.13 | 0.35 | 0.27 | 92 | 1007.6 |
| 20260506205555 | 56 | 244 | 0.0 | 0.0 | 0.11 | 0.44 | 0.25 | 92 | 1007.6 |
| 20260506205055 | 56 | 244 | 0.0 | 0.0 | 0.09 | 0.43 | 0.24 | 92 | 1007.6 |
| 20260506204555 | 56 | 244 | 0.0 | 0.0 | 0.08 | 0.41 | 0.22 | 92 | 1007.6 |
| 20260506204054 | 56 | 245 | 0.0 | 0.0 | 0.07 | 0.40 | 0.21 | 92 | 1007.9 |
| 20260506203555 | 56 | 245 | 0.0 | 0.0 | 0.06 | 0.39 | 0.20 | 91 | 1008.1 |
| 20260506203054 | 56 | 245 | 0.0 | 0.0 | 0.05 | 0.38 | 0.19 | 91 | 1008.1 |
| 20260506202555 | 56 | 245 | 0.0 | 1.0 | 0.04 | 0.37 | 0.18 | 91 | 1007.9 |
| 20260506202054 | 56 | 216 | 0.0 | 1.0 | 0.03 | 0.36 | 0.17 | 90 | 1007.8 |
| 20260506201554 | 56 | 88 | 0.0 | 0.0 | 0.02 | 0.35 | 0.16 | 90 | 1007.9 |
| 20260506201053 | 56 | 87 | 0.0 | 0.0 | 0.00 | 0.33 | 0.14 | 90 | 1007.8 |
| 20260506200554 | 56 | 87 | 0.0 | 0.0 | 0.00 | 0.33 | 0.14 | 89 | 1007.6 |
| 20260506200153 | 56 | 88 | 0.0 | 0.0 | 0.00 | 0.33 | 0.14 | 89 | 1007.5 |
| 20260506195547 | 57 | 88 | 0.0 | 0.0 | 0.00 | 0.33 | 0.14 | 88 | 1006.8 |
| 20260506195047 | 57 | 88 | 0.0 | 0.0 | 0.00 | 0.33 | 0.14 | 88 | 1006.2 |
| 20260506194550 | 57 | 158 | 0.0 | 0.0 | 0.00 | 0.33 | 0.14 | 89 | 1006.3 |
| 20260506194046 | 56 | 158 | 0.0 | 0.0 | 0.00 | 0.33 | 0.14 | 89 | 1006.6 |
| 20260506193547 | 56 | 160 | 0.0 | 2.0 | 0.00 | 0.33 | 0.14 | 90 | 1006.6 |
| 20260506193046 | 56 | 212 | 0.0 | 2.0 | 0.00 | 0.33 | 0.14 | 90 | 1006.5 |
| 20260506192546 | 56 | 66 | 0.0 | 0.0 | 0.00 | 0.33 | 0.14 | 90 | 1006.5 |
| 20260506192046 | 56 | 62 | 0.0 | 0.0 | 0.00 | 0.33 | 0.14 | 90 | 1006.3 |
| 20260506191546 | 56 | 62 | 0.0 | 0.0 | 0.00 | 0.33 | 0.14 | 90 | 1006.1 |
| 20260506191046 | 56 | 62 | 0.0 | 0.0 | 0.00 | 0.33 | 0.14 | 90 | 1006.1 |
| 20260506190546 | 56 | 62 | 0.0 | 0.0 | 0.00 | 0.33 | 0.14 | 89 | 1006.2 |
| 20260506190145 | 56 | 62 | 0.0 | 0.0 | 0.00 | 0.33 | 0.14 | 89 | 1006.2 |
| 20260506185550 | 56 | 62 | 0.0 | 0.0 | 0.00 | 0.33 | 0.14 | 90 | 1006.0 |
| 20260506185050 | 56 | 62 | 0.0 | 1.0 | 0.00 | 0.33 | 0.14 | 90 | 1006.0 |
| 20260506184551 | 56 | 123 | 0.0 | 1.0 | 0.00 | 0.33 | 0.14 | 90 | 1005.9 |
| 20260506184050 | 56 | 95 | 0.0 | 0.0 | 0.00 | 0.33 | 0.14 | 89 | 1005.9 |
| 20260506183550 | 56 | 95 | 0.0 | 1.0 | 0.00 | 0.33 | 0.14 | 89 | 1005.6 |
| 20260506183049 | 57 | 95 | 0.0 | 1.0 | 0.00 | 0.33 | 0.14 | 88 | 1005.6 |
| 20260506182549 | 57 | 95 | 0.0 | 2.0 | 0.00 | 0.33 | 0.14 | 88 | 1005.5 |
| 20260506182049 | 57 | 95 | 0.0 | 2.0 | 0.00 | 0.33 | 0.14 | 87 | 1005.4 |
| 20260506181549 | 58 | 95 | 0.0 | 3.0 | 0.00 | 0.33 | 0.14 | 87 | 1005.1 |
| 20260506181049 | 58 | 122 | 0.0 | 4.0 | 0.00 | 0.33 | 0.14 | 87 | 1005.1 |
| 20260506180549 | 58 | 122 | 1.0 | 3.0 | 0.00 | 0.33 | 0.14 | 87 | 1005.2 |
| 20260506180150 | 58 | 121 | 0.0 | 3.0 | 0.00 | 0.33 | 0.14 | 87 | 1005.2 |
| 20260506175554 | 58 | 121 | 0.0 | 4.0 | 0.00 | 0.33 | 0.14 | 87 | 1005.1 |
| 20260506175052 | 58 | 121 | 1.0 | 4.0 | 0.00 | 0.33 | 0.14 | 87 | 1005.0 |
| 20260506174552 | 58 | 108 | 0.0 | 3.0 | 0.00 | 0.33 | 0.14 | 87 | 1005.1 |
| 20260506174053 | 58 | 108 | 0.0 | 3.0 | 0.00 | 0.33 | 0.14 | 87 | 1005.1 |
| 20260506173652 | 58 | 141 | 0.0 | 2.0 | 0.00 | 0.33 | 0.14 | 87 | 1005.0 |
| 20260506173105 | 58 | 141 | 0.0 | 2.0 | 0.00 | 0.33 | 0.14 | 87 | 1005.1 |
| 20260506172551 | 58 | 97 | 0.0 | 2.0 | 0.00 | 0.33 | 0.14 | 87 | 1005.1 |
| 20260506172051 | 57 | 97 | 0.0 | 3.0 | 0.00 | 0.33 | 0.14 | 87 | 1005.0 |
| 20260506171557 | 58 | 97 | 0.0 | 3.0 | 0.00 | 0.33 | 0.14 | 88 | 1005.0 |
| 20260506171152 | 57 | 70 | 0.0 | 1.0 | 0.00 | 0.33 | 0.14 | 88 | 1005.1 |
| 20260506170550 | 57 | 70 | 0.0 | 3.0 | 0.00 | 0.33 | 0.14 | 88 | 1004.8 |
| 20260506170151 | 58 | 70 | 0.0 | 3.0 | 0.00 | 0.33 | 0.14 | 88 | 1004.7 |
| 20260506165541 | 58 | 150 | 0.0 | 0.0 | 0.00 | 0.33 | 0.14 | 89 | 1004.8 |
| 20260506165039 | 58 | 150 | 0.0 | 0.0 | 0.00 | 0.33 | 0.14 | 88 | 1004.8 |
| 20260506164551 | 59 | 150 | 0.0 | 0.0 | 0.00 | 0.33 | 0.14 | 88 | 1004.8 |
| 20260506164038 | 59 | 150 | 0.0 | 0.0 | 0.00 | 0.33 | 0.14 | 89 | 1005.1 |
| 20260506163538 | 59 | 150 | 0.0 | 0.0 | 0.00 | 0.33 | 0.14 | 89 | 1005.1 |
| 20260506163041 | 59 | 150 | 0.0 | 0.0 | 0.01 | 0.33 | 0.14 | 90 | 1005.1 |
| 20260506162538 | 58 | 150 | 0.0 | 0.0 | 0.03 | 0.33 | 0.14 | 89 | 1005.2 |
| 20260506162038 | 59 | 150 | 0.0 | 0.0 | 0.07 | 0.33 | 0.14 | 89 | 1005.2 |
| 20260506161538 | 59 | 150 | 0.0 | 0.0 | 0.07 | 0.33 | 0.14 | 90 | 1005.4 |
| 20260506161037 | 59 | 150 | 0.0 | 0.0 | 0.07 | 0.33 | 0.14 | 91 | 1005.5 |
| 20260506160538 | 58 | 150 | 0.0 | 0.0 | 0.07 | 0.33 | 0.14 | 90 | 1005.6 |
| 20260506160136 | 58 | 150 | 0.0 | 1.0 | 0.07 | 0.33 | 0.14 | 90 | 1005.7 |
| 20260506155532 | 58 | 150 | 0.0 | 2.0 | 0.07 | 0.33 | 0.14 | 90 | 1005.7 |
| 20260506155032 | 57 | 225 | 0.0 | 2.0 | 0.07 | 0.33 | 0.14 | 90 | 1005.6 |
| 20260506154532 | 57 | 226 | 0.0 | 2.0 | 0.07 | 0.33 | 0.14 | 89 | 1005.6 |
| 20260506154032 | 57 | 91 | 0.0 | 2.0 | 0.07 | 0.33 | 0.14 | 88 | 1005.1 |
| 20260506153531 | 56 | 308 | 0.0 | 0.0 | 0.06 | 0.32 | 0.13 | 88 | 1005.1 |
| 20260506153031 | 57 | 284 | 0.0 | 2.0 | 0.06 | 0.32 | 0.13 | 87 | 1005.8 |
| 20260506152533 | 58 | 284 | 0.0 | 2.0 | 0.04 | 0.30 | 0.11 | 85 | 1006.4 |
| 20260506152029 | 58 | 283 | 0.0 | 1.0 | 0.01 | 0.26 | 0.07 | 84 | 1006.5 |
| 20260506151529 | 59 | 283 | 0.0 | 1.0 | 0.01 | 0.26 | 0.07 | 82 | 1006.4 |
| 20260506151032 | 59 | 283 | 0.0 | 3.0 | 0.01 | 0.26 | 0.07 | 78 | 1006.2 |
| 20260506150529 | 60 | 283 | 0.0 | 3.0 | 0.01 | 0.26 | 0.07 | 79 | 1006.0 |
| 20260506150020 | 60 | 208 | 1.0 | 7.0 | 0.01 | 0.26 | 0.07 | 81 | 1005.8 |
| 20260506145523 | 60 | 85 | 0.0 | 2.0 | 0.01 | 0.26 | 0.07 | 83 | 1005.6 |
| 20260506145018 | 61 | 263 | 0.0 | 2.0 | 0.01 | 0.26 | 0.07 | 84 | 1005.7 |
| 20260506144518 | 61 | 185 | 0.0 | 3.0 | 0.01 | 0.26 | 0.07 | 85 | 1005.7 |
| 20260506144021 | 60 | 307 | 0.0 | 1.0 | 0.01 | 0.26 | 0.07 | 87 | 1005.9 |
| 20260506143518 | 61 | 144 | 0.0 | 0.0 | 0.01 | 0.26 | 0.07 | 87 | 1005.9 |
| 20260506143021 | 61 | 144 | 0.0 | 0.0 | 0.01 | 0.26 | 0.07 | 87 | 1005.8 |
| 20260506142517 | 61 | 144 | 0.0 | 0.0 | 0.01 | 0.26 | 0.07 | 86 | 1005.8 |
| 20260506142016 | 62 | 144 | 0.0 | 0.0 | 0.00 | 0.25 | 0.06 | 86 | 1005.9 |
| 20260506141517 | 62 | 144 | 0.0 | 0.0 | 0.00 | 0.25 | 0.06 | 84 | 1005.9 |
| 20260506141016 | 63 | 144 | 0.0 | 0.0 | 0.00 | 0.25 | 0.06 | 81 | 1005.9 |
| 20260506140516 | 64 | 144 | 0.0 | 0.0 | 0.00 | 0.25 | 0.06 | 76 | 1006.0 |
| 20260506140016 | 65 | 144 | 0.0 | 0.0 | 0.00 | 0.25 | 0.06 | 72 | 1006.0 |
| 20260506135515 | 66 | 144 | 0.0 | 0.0 | 0.00 | 0.25 | 0.06 | 69 | 1006.0 |
| 20260506135014 | 67 | 144 | 0.0 | 0.0 | 0.00 | 0.25 | 0.06 | 67 | 1006.0 |
| 20260506134515 | 67 | 144 | 0.0 | 0.0 | 0.00 | 0.25 | 0.06 | 64 | 1006.0 |
| 20260506134015 | 68 | 144 | 0.0 | 0.0 | 0.00 | 0.25 | 0.06 | 62 | 1006.0 |
| 20260506133515 | 68 | 144 | 0.0 | 0.0 | 0.00 | 0.25 | 0.06 | 63 | 1006.0 |
| 20260506133015 | 68 | 144 | 0.0 | 0.0 | 0.00 | 0.25 | 0.06 | 58 | 1006.0 |
| 20260506132513 | 68 | 135 | 0.0 | 0.0 | 0.00 | 0.25 | 0.06 | 62 | 1006.1 |
| 20260506132016 | 69 | 135 | 0.0 | 0.0 | 0.00 | 0.25 | 0.06 | 63 | 1006.2 |
| 20260506131517 | 69 | 135 | 0.0 | 0.0 | 0.00 | 0.25 | 0.06 | 63 | 1006.2 |
| 20260506131012 | 69 | 135 | 0.0 | 0.0 | 0.00 | 0.25 | 0.06 | 64 | 1006.3 |
| 20260506130516 | 68 | 135 | 0.0 | 0.0 | 0.00 | 0.25 | 0.06 | 61 | 1006.3 |
| 20260506130015 | 68 | 347 | 0.0 | 0.0 | 0.00 | 0.25 | 0.06 | 63 | 1006.4 |
| 20260506125511 | 69 | 347 | 0.0 | 0.0 | 0.00 | 0.25 | 0.06 | 63 | 1006.4 |
| 20260506125013 | 69 | 346 | 0.0 | 0.0 | 0.00 | 0.25 | 0.06 | 63 | 1006.5 |
| 20260506124511 | 68 | 352 | 0.0 | 0.0 | 0.00 | 0.25 | 0.06 | 65 | 1006.4 |
| 20260506124011 | 69 | 352 | 0.0 | 3.0 | 0.00 | 0.25 | 0.06 | 62 | 1006.5 |
| 20260506123510 | 69 | 352 | 0.0 | 3.0 | 0.00 | 0.25 | 0.06 | 60 | 1006.6 |
| 20260506123009 | 70 | 350 | 0.0 | 4.0 | 0.00 | 0.25 | 0.06 | 57 | 1006.6 |
| 20260506122509 | 69 | 207 | 0.0 | 4.0 | 0.00 | 0.25 | 0.06 | 63 | 1006.7 |
| 20260506122008 | 69 | 298 | 0.0 | 3.0 | 0.00 | 0.25 | 0.06 | 62 | 1006.8 |
| 20260506121507 | 69 | 104 | 0.0 | 2.0 | 0.00 | 0.25 | 0.06 | 63 | 1006.9 |
| 20260506121006 | 67 | 296 | 0.0 | 2.0 | 0.00 | 0.25 | 0.06 | 70 | 1007.1 |
| 20260506120506 | 67 | 280 | 0.0 | 3.0 | 0.00 | 0.25 | 0.06 | 67 | 1007.1 |
| 20260506120005 | 68 | 105 | 0.0 | 3.0 | 0.00 | 0.25 | 0.06 | 67 | 1007.1 |
| 20260506115505 | 67 | 325 | 0.0 | 2.0 | 0.00 | 0.25 | 0.06 | 65 | 1007.0 |
| 20260506115005 | 67 | 103 | 0.0 | 3.0 | 0.00 | 0.25 | 0.06 | 63 | 1007.1 |
| 20260506114504 | 68 | 283 | 1.0 | 3.0 | 0.00 | 0.25 | 0.06 | 65 | 1007.1 |
| 20260506114003 | 67 | 346 | 0.0 | 5.0 | 0.00 | 0.25 | 0.06 | 64 | 1007.1 |
| 20260506113503 | 66 | 346 | 1.0 | 5.0 | 0.00 | 0.25 | 0.06 | 66 | 1007.2 |
| 20260506113005 | 66 | 207 | 0.0 | 2.0 | 0.00 | 0.25 | 0.06 | 67 | 1007.3 |
| 20260506112506 | 68 | 210 | 0.0 | 4.0 | 0.00 | 0.25 | 0.06 | 67 | 1007.3 |
| 20260506112003 | 68 | 313 | 0.0 | 2.0 | 0.00 | 0.25 | 0.06 | 66 | 1007.3 |
| 20260506111502 | 67 | 291 | 1.0 | 2.0 | 0.00 | 0.25 | 0.06 | 66 | 1007.5 |
| 20260506111001 | 65 | 317 | 0.0 | 4.0 | 0.00 | 0.25 | 0.06 | 66 | 1007.5 |
| 20260506110501 | 65 | 320 | 0.0 | 5.0 | 0.00 | 0.25 | 0.06 | 66 | 1007.5 |
| 20260506110001 | 67 | 349 | 1.0 | 5.0 | 0.00 | 0.25 | 0.06 | 68 | 1007.6 |
| 20260506105605 | 65 | 272 | 2.0 | 5.0 | 0.00 | 0.25 | 0.06 | 67 | 1007.5 |
| 20260506105059 | 67 | 299 | 1.0 | 5.0 | 0.00 | 0.25 | 0.06 | 67 | 1007.6 |
| 20260506104558 | 66 | 319 | 2.0 | 5.0 | 0.00 | 0.25 | 0.06 | 67 | 1007.6 |
| 20260506104057 | 66 | 126 | 0.0 | 8.0 | 0.00 | 0.25 | 0.06 | 69 | 1007.6 |
| 20260506103558 | 66 | 224 | 2.0 | 8.0 | 0.00 | 0.25 | 0.06 | 70 | 1007.7 |
| 20260506103057 | 66 | 236 | 0.0 | 4.0 | 0.00 | 0.25 | 0.06 | 70 | 1007.7 |
| 20260506102557 | 66 | 71 | 0.0 | 3.0 | 0.00 | 0.25 | 0.06 | 70 | 1007.6 |
| 20260506102056 | 66 | 310 | 0.0 | 3.0 | 0.00 | 0.25 | 0.06 | 71 | 1007.7 |
| 20260506101555 | 65 | 303 | 0.0 | 3.0 | 0.00 | 0.25 | 0.06 | 72 | 1007.6 |
| 20260506101054 | 65 | 278 | 1.0 | 3.0 | 0.00 | 0.25 | 0.06 | 70 | 1007.7 |
| 20260506100555 | 64 | 237 | 0.0 | 6.0 | 0.00 | 0.25 | 0.06 | 71 | 1007.8 |
| 20260506100054 | 64 | 325 | 1.0 | 6.0 | 0.00 | 0.25 | 0.06 | 73 | 1007.7 |
| 20260506095552 | 64 | 301 | 0.0 | 4.0 | 0.00 | 0.25 | 0.06 | 75 | 1007.8 |
| 20260506095052 | 64 | 302 | 0.0 | 4.0 | 0.00 | 0.25 | 0.06 | 73 | 1007.9 |
| 20260506094551 | 63 | 246 | 0.0 | 4.0 | 0.00 | 0.25 | 0.06 | 74 | 1007.8 |
| 20260506094050 | 63 | 302 | 0.0 | 5.0 | 0.00 | 0.25 | 0.06 | 75 | 1007.8 |
| 20260506093548 | 63 | 317 | 0.0 | 3.0 | 0.00 | 0.25 | 0.06 | 78 | 1007.8 |
| 20260506093051 | 62 | 201 | 0.0 | 4.0 | 0.00 | 0.25 | 0.06 | 75 | 1007.8 |
| 20260506092548 | 63 | 232 | 1.0 | 5.0 | 0.00 | 0.25 | 0.06 | 74 | 1007.9 |
| 20260506092047 | 62 | 193 | 1.0 | 5.0 | 0.00 | 0.25 | 0.06 | 76 | 1007.8 |
| 20260506091546 | 62 | 283 | 1.0 | 5.0 | 0.00 | 0.25 | 0.06 | 80 | 1007.9 |
| 20260506091045 | 60 | 241 | 0.0 | 5.0 | 0.00 | 0.25 | 0.06 | 79 | 1007.9 |
| 20260506090545 | 60 | 10 | 0.0 | 2.0 | 0.00 | 0.25 | 0.06 | 79 | 1007.9 |
| 20260506090046 | 60 | 245 | 0.0 | 3.0 | 0.00 | 0.25 | 0.06 | 79 | 1007.9 |
| 20260506085544 | 61 | 243 | 0.0 | 6.0 | 0.00 | 0.25 | 0.06 | 80 | 1008.0 |
| 20260506085046 | 61 | 194 | 1.0 | 6.0 | 0.00 | 0.25 | 0.06 | 80 | 1007.8 |
| 20260506084542 | 61 | 302 | 0.0 | 0.0 | 0.00 | 0.25 | 0.06 | 81 | 1007.9 |
| 20260506084042 | 61 | 302 | 0.0 | 0.0 | 0.00 | 0.25 | 0.06 | 82 | 1007.9 |
| 20260506083540 | 60 | 281 | 0.0 | 3.0 | 0.00 | 0.25 | 0.06 | 83 | 1007.9 |
| 20260506083139 | 59 | 256 | 0.0 | 3.0 | 0.00 | 0.25 | 0.06 | 85 | 1008.0 |
| 20260506082539 | 59 | 283 | 0.0 | 4.0 | 0.00 | 0.25 | 0.06 | 85 | 1008.0 |
| 20260506082038 | 59 | 130 | 1.0 | 5.0 | 0.00 | 0.25 | 0.06 | 85 | 1008.1 |
| 20260506081537 | 59 | 203 | 1.0 | 5.0 | 0.00 | 0.25 | 0.06 | 84 | 1008.0 |
| 20260506081036 | 58 | 261 | 0.0 | 5.0 | 0.00 | 0.25 | 0.06 | 86 | 1007.9 |
| 20260506080540 | 58 | 214 | 0.0 | 5.0 | 0.00 | 0.25 | 0.06 | 86 | 1008.0 |